Faro, Portugal

9:28 PM WET on December 14, 2019 (GMT +0000)
Faro

Weather History for LPFR - November, 2019

Change the Weather History Date:

Sunday, November 17, 2019

  Actual Average Record
Temperature  
Mean Temperature 56 °F -  
Max Temperature 65 °F 62 °F 71 °F (2008)
Min Temperature 46 °F 49 °F 44 °F (2001)
Degree Days  
Heating Degree Days 10    
Growing Degree Days 6 (Base 50)    
Moisture  
Dew Point 52 °F    
Average Humidity 84    
Maximum Humidity 100    
Minimum Humidity 67    
Precipitation  
Precipitation 0.01 in 0.12 in - ()
Sea Level Pressure  
Sea Level Pressure 30.09 in    
Wind  
Wind Speed 7 mph ()    
Max Wind Speed 18 mph    
Max Gust Speed -    
Visibility 6.6 miles    
Events Rain    
Averages and records for this station are not official NWS values.
T = Trace of Precipitation, MM = Missing Value Source: Averaged Metar Reports

Daily Weather History Graph

Daily Weather History Graph

Search for Another Location

Airport or City:

Astronomy

Nov. 17, 2019 Rise Set
Actual Time 7:12 AM WET 5:21 PM WET
Civil Twilight 6:44 AM WET 5:48 PM WET
Nautical Twilight 6:12 AM WET 6:20 PM WET
Astronomical Twilight 5:42 AM WET 6:51 PM WET
Moon 9:44 PM WET (11/17) 11:44 AM WET (11/17)
Length of Visible Light 11h 04m
Length of Day
10h 08m
Waning Gibbous, 75% of the Moon is Illuminated
Nov 17
Waning Gibbous
Nov 19
Last Quarter
Nov 26
New
Dec 4
First Quarter
Dec 12
Full

Hourly Weather History & Observations

Time (WET) Temp. Windchill Dew Point Humidity Pressure Visibility Wind Dir Wind Speed Gust Speed Precip Events Conditions
12:00 AM 48 °F - 42 °F 75% 30.18 in 12 mi West 6.7 mph - -   Clear
12:00 AM 46.4 °F 42.9 °F 41.0 °F 81% 30.15 in - West 6.9 mph - N/A   Clear
12:30 AM 46.4 °F 42.4 °F 41.0 °F 81% 30.15 in - West 8.1 mph - N/A   Clear
1:00 AM 49 °F - 42 °F 69% 30.18 in - NW 4.5 mph - -  
1:00 AM 48.2 °F - 42.8 °F 82% 30.15 in - WNW 8.1 mph - N/A   Clear
1:30 AM 48.2 °F - 42.8 °F 82% 30.12 in - NW 5.8 mph - N/A   Clear
2:00 AM 48 °F - 42 °F 72% 30.16 in - Calm Calm - -  
2:00 AM 46.4 °F 45.2 °F 41.0 °F 81% 30.12 in - West 3.5 mph - N/A   Clear
2:30 AM 48.2 °F - 42.8 °F 82% 30.12 in - ESE 2.3 mph - N/A   Clear
3:00 AM 49 °F - 45 °F 79% 30.16 in 12 mi Calm Calm - -   Mostly Cloudy
3:00 AM 48.2 °F - 44.6 °F 87% 30.12 in - SE 2.3 mph - N/A   Clear
3:30 AM 50.0 °F - 44.6 °F 82% 30.12 in 6.2 mi Calm Calm - N/A   Scattered Clouds
4:00 AM 51 °F - 44 °F 68% 30.15 in - Calm Calm - -  
4:00 AM 50.0 °F - 44.6 °F 82% 30.12 in 6.2 mi Variable 2.3 mph - N/A   Mostly Cloudy
4:30 AM 50.0 °F - 44.6 °F 82% 30.09 in 6.2 mi NE 2.3 mph - N/A   Mostly Cloudy
5:00 AM 51 °F - 44 °F 70% 30.13 in - Calm Calm - -  
5:00 AM 51.8 °F - 44.6 °F 76% 30.09 in 6.2 mi NNW 3.5 mph - N/A   Mostly Cloudy
5:30 AM 51.8 °F - 44.6 °F 76% 30.09 in 6.2 mi North 3.5 mph - N/A   Mostly Cloudy
6:00 AM 53 °F - 45 °F 67% 30.13 in 12 mi NNW 2.2 mph - -   Overcast
6:00 AM 51.8 °F - 44.6 °F 76% 30.09 in 6.2 mi North 3.5 mph - N/A   Mostly Cloudy
6:30 AM 53.6 °F - 46.4 °F 77% 30.09 in 6.2 mi Variable 2.3 mph - N/A   Mostly Cloudy
7:00 AM 53.6 °F - 48.2 °F 82% 30.09 in 5.6 mi NNW 4.6 mph - N/A Rain Light Rain
7:30 AM 51.8 °F - 50.0 °F 94% 30.12 in 5.6 mi NNW 5.8 mph - N/A Rain Light Rain
8:00 AM 53 °F - 52 °F 96% 30.14 in - North 2.2 mph - -  
8:00 AM 53.6 °F - 51.8 °F 94% 30.12 in 1.9 mi NNW 5.8 mph - N/A Rain Light Rain
8:30 AM 53.6 °F - 53.6 °F 100% 30.12 in 5.0 mi Variable 2.3 mph - N/A   Mostly Cloudy
9:00 AM 55 °F - 55 °F 98% 30.15 in 5 mi Calm Calm - -   Partly Cloudy
9:00 AM 55.4 °F - 53.6 °F 94% 30.12 in 6.2 mi WNW 5.8 mph - N/A   Mostly Cloudy
9:30 AM 57.2 °F - 55.4 °F 94% 30.12 in 6.2 mi WNW 10.4 mph - N/A   Mostly Cloudy
10:30 AM 60.8 °F - 57.2 °F 88% 30.12 in 6.2 mi West 10.4 mph - N/A   Scattered Clouds
11:00 AM 60.8 °F - 57.2 °F 88% 30.12 in 6.2 mi West 12.7 mph - N/A   Scattered Clouds
11:30 AM 60.8 °F - 57.2 °F 88% 30.12 in 6.2 mi West 13.8 mph - N/A   Scattered Clouds
12:00 PM 62 °F - 57 °F 79% 30.13 in 9 mi West 13.4 mph - -   Partly Cloudy
12:30 PM 62.6 °F - 57.2 °F 82% 30.09 in 6.2 mi WSW 13.8 mph - N/A   Scattered Clouds
1:00 PM 62.6 °F - 59.0 °F 88% 30.09 in 6.2 mi WSW 12.7 mph - N/A   Partly Cloudy
2:00 PM 64 °F - 58 °F 73% 30.07 in - WSW 15.7 mph - -  
2:00 PM 62.6 °F - 57.2 °F 82% 30.06 in 6.2 mi WSW 15.0 mph - N/A   Partly Cloudy
2:30 PM 62.6 °F - 57.2 °F 82% 30.04 in 6.2 mi WSW 16.1 mph - N/A   Partly Cloudy
3:00 PM 64 °F - 56 °F 70% 30.06 in 9 mi West 17.9 mph - -   Scattered Clouds
3:00 PM 62.6 °F - 57.2 °F 82% 30.04 in 6.2 mi West 16.1 mph - N/A   Partly Cloudy
3:30 PM 62.6 °F - 57.2 °F 82% 30.04 in 6.2 mi WSW 16.1 mph - N/A   Partly Cloudy
4:00 PM 62.6 °F - 57.2 °F 82% 30.04 in 6.2 mi WSW 16.1 mph - N/A   Partly Cloudy
4:30 PM 60.8 °F - 57.2 °F 88% 30.04 in 6.2 mi WSW 15.0 mph - N/A   Partly Cloudy
5:00 PM 60.8 °F - 57.2 °F 88% 30.04 in 6.2 mi WSW 15.0 mph - N/A   Scattered Clouds
5:30 PM 60.8 °F - 57.2 °F 88% 30.04 in 6.2 mi WSW 16.1 mph - N/A   Scattered Clouds
6:00 PM 60 °F - 57 °F 85% 30.06 in 9 mi West 17.9 mph - -   Partly Cloudy
6:00 PM 60.8 °F - 57.2 °F 88% 30.04 in 6.2 mi West 17.3 mph - N/A   Scattered Clouds
6:30 PM 59.0 °F - 57.2 °F 94% 30.04 in 6.2 mi West 12.7 mph - N/A   Scattered Clouds
7:00 PM 60 °F - 57 °F 85% 30.05 in - West 13.4 mph - -  
7:00 PM 59.0 °F - 57.2 °F 94% 30.04 in 6.2 mi West 13.8 mph - N/A   Scattered Clouds
7:30 PM 59.0 °F - 57.2 °F 94% 30.04 in 6.2 mi WSW 13.8 mph - N/A   Scattered Clouds
8:00 PM 59.0 °F - 57.2 °F 94% 30.01 in 6.2 mi WSW 12.7 mph - N/A   Scattered Clouds
8:30 PM 59.0 °F - 57.2 °F 94% 30.01 in 6.2 mi West 13.8 mph - N/A   Partly Cloudy
9:00 PM 60 °F - 58 °F 89% 30.03 in 9 mi WSW 13.4 mph - -   Scattered Clouds
9:00 PM 59.0 °F - 57.2 °F 94% 30.01 in 6.2 mi WSW 12.7 mph - N/A   Partly Cloudy
9:30 PM 59.0 °F - 57.2 °F 94% 30.01 in 6.2 mi WSW 15.0 mph - N/A   Scattered Clouds
10:00 PM 60 °F - 57 °F 88% 30.01 in - WSW 15.7 mph - -  
10:30 PM 60.8 °F - 57.2 °F 88% 29.98 in 6.2 mi WSW 18.4 mph - N/A   Scattered Clouds
11:00 PM 60 °F - 58 °F 89% 30.01 in - West 15.7 mph - -  
11:00 PM 60.8 °F - 57.2 °F 88% 29.98 in 2.5 mi WSW 15.0 mph - N/A Rain Light Rain